Location: Gorze? G�rny
(49.8500°N, 19.5000°E)
Time: 05:14:58
(UTC+00:00)

Cosmos 1356 Rocket - Pass Details

Date: 13 May 2021
Orbit: 543 x 598 km, 81.2° (Epoch: 20 June)

Event Time Altitude Azimuth Distance (km) Brightness Sun altitude
Rises 22:44:41 0° 344° (NNW) 2,843 8.2 -21.5°
Reaches altitude 10° 22:46:56 10° 339° (NNW) 1,941 7.1 -21.5°
Maximum altitude 22:51:07 53° 263° (W) 741 3.8 -21.5°
Enters shadow 22:51:33 50° 240° (WSW) 764 3.7 -21.5°
